Probability
0 0 0 0 1 2 3 3 3 3 3 3 3 3 3 3 3 3 3 3 3 3 3 3 3 3 3 3 3 3 3 2 2 3 3 3 1 1 2 3 3 3 3
0 0 0 0 1 2 3 3 3 3 3 3 3 3 3 3 4 4 4 4 3 3 3 3 3 3 3 3 3 3 3 3 3 4 4 4 2 2 3 3 3 3 3
0 0 0 0 1 2 3 3 3 3 3 3 3 3 3 4 5 5 5 5 4 3 3 3 3 3 3 3 3 3 3 4 5 6 6 6 4 4 4 3 3 3 3
0 0 0 0 0 1 1 2 3 3 3 3 3 3 3 4 4 4 5 6 5 4 3 2 3 3 3 3 3 3 3 4 4 6 7 7 6 6 5 4 3 3 3
0 0 0 0 0 0 0 1 2 3 3 3 3 3 3 2 2 3 5 5 5 4 3 2 2 2 3 3 3 3 4 4 4 4 5 6 7 7 6 5 4 3 3
0 0 0 0 0 0 0 0 1 1 2 1 1 3 3 2 2 2 4 5 5 4 3 2 1 1 1 3 3 4 4 4 4 3 4 6 7 7 6 4 4 4 4
0 0 0 0 0 0 0 0 0 1 2 1 1 3 3 3 2 2 3 5 5 4 3 2 0 0 1 3 4 5 5 5 5 5 6 8 9 8 5 4 4 5 5
1 1 1 1 0 0 0 1 1 3 3 3 3 3 3 3 3 1 2 4 5 3 2 1 0 0 2 3 4 5 6 6 7 6 8 10 10 9 6 4 5 6 6
2 2 2 1 0 0 1 2 4 5 4 4 3 3 3 3 3 2 1 2 2 1 1 0 0 0 1 3 3 4 5 7 6 5 6 9 9 8 7 6 6 7 7
1 1 1 1 1 2 3 4 5 6 6 5 4 3 3 3 3 2 1 0 0 0 0 0 0 0 1 2 4 4 5 5 4 3 3 5 7 7 7 6 6 6 6
0 0 1 1 2 4 5 4 5 6 7 7 6 4 3 3 4 3 1 0 0 0 0 0 0 0 0 1 3 4 3 2 2 2 2 2 4 5 5 5 4 4 4
0 1 2 2 3 5 6 5 6 8 9 9 8 7 6 5 5 4 1 0 0 0 0 0 0 0 0 0 1 2 1 1 1 2 2 2 2 3 4 4 4 3 3
0 1 2 3 3 4 6 7 7 9 10 10 10 11 10 9 7 5 3 1 0 0 0 0 0 0 0 0 0 0 0 0 0 1 1 1 1 2 3 4 3 3 3
1 1 2 2 3 4 6 7 9 10 10 11 11 12 12 11 9 7 5 3 1 0 0 0 0 0 0 0 0 0 0 0 0 0 0 0 1 1 1 2 2 3 3
4 3 2 1 1 3 6 8 9 10 12 12 13 12 11 10 9 9 8 6 3 1 1 1 1 0 0 0 0 1 0 0 0 0 0 0 0 0 0 0 1 2 2
6 5 3 2 1 3 6 8 8 10 12 12 12 11 10 9 8 8 8 6 4 3 3 3 2 1 0 0 0 0 0 0 0 0 0 0 0 0 0 0 0 1 1
6 5 3 2 2 3 6 6 7 9 10 10 10 9 9 8 7 5 5 4 3 4 5 5 3 1 0 0 0 0 0 0 0 0 0 0 0 0 0 0 0 0 0
7 6 4 2 2 3 5 6 7 9 9 8 8 8 8 6 4 3 4 4 4 4 6 6 4 1 0 0 0 0 0 0 0 0 0 0 0 0 0 0 0 0 0
9 7 6 5 5 6 8 9 10 11 10 9 8 8 7 5 3 4 5 5 4 5 6 6 4 1 0 0 0 0 0 0 0 0 0 0 0 0 0 0 0 0 0
11 9 8 9 10 10 10 10 11 12 12 11 9 8 7 6 5 5 5 4 3 3 5 5 3 1 0 0 0 0 0 0 0 0 0 0 0 0 0 0 0 0 0
11 9 8 9 10 10 8 8 9 11 12 11 10 9 7 6 5 5 4 3 2 1 3 3 2 1 0 0 0 0 0 0 0 0 0 0 0 0 0 0 0 0 0
11 9 7 7 7 7 6 4 5 7 9 9 9 9 8 6 5 3 2 2 1 1 1 1 2 1 1 0 0 0 0 0 0 0 0 0 0 0 0 0 0 0 0
10 8 6 5 6 6 5 4 3 5 7 7 8 8 8 7 6 4 2 0 0 0 0 1 2 2 2 1 0 0 0 0 0 0 0 0 0 0 0 0 0 0 0
10 9 8 7 7 7 6 4 3 5 6 6 7 6 6 5 5 5 3 1 1 0 0 0 1 1 1 1 0 0 0 0 1 0 0 0 0 0 0 0 0 0 0
12 10 9 9 8 8 6 4 3 5 6 6 6 6 4 3 4 3 3 2 1 0 0 0 0 0 0 0 0 0 1 1 1 1 0 0 0 1 1 0 0 0 0
13 11 10 9 8 7 5 3 3 5 6 6 6 6 4 3 3 2 2 2 1 0 0 0 0 0 0 0 0 1 2 2 2 2 1 0 1 2 2 1 0 0 0
Wind_Speed
1 1 1 1 2 2 2 2 2 2 2 2 1 1 1 1 1 0 0 2 4 4 4 5 5 6 6 6 6 6 5 6 6 5 4 4 5 4 5 6 6 5 5
2 2 2 2 1 2 2 2 2 2 1 1 1 1 1 1 1 1 1 1 2 3 3 4 4 5 5 6 6 6 6 6 6 5 5 5 4 4 4 5 5 6 6
2 2 2 2 1 2 3 2 2 2 1 1 1 1 0 0 1 1 0 0 1 3 4 4 4 4 5 5 6 6 6 6 5 6 6 5 5 5 5 6 6 6 6
3 2 2 1 2 2 2 2 2 2 1 1 1 1 1 0 0 1 1 1 1 1 2 3 3 3 4 5 5 6 5 5 5 5 5 5 5 6 6 7 7 6 6
3 3 2 2 2 2 2 2 2 2 1 1 0 0 1 1 1 1 1 2 2 2 1 2 3 3 4 5 5 5 5 6 5 6 6 6 6 6 6 7 6 6 6
3 3 2 2 3 2 2 2 2 2 1 1 0 1 1 1 1 1 2 2 2 2 2 2 1 2 4 4 5 5 5 5 5 5 6 6 6 6 6 6 6 6 6
3 3 2 2 3 2 2 3 2 2 1 2 1 1 2 1 1 1 1 1 2 2 2 2 2 2 2 4 4 5 6 5 5 5 6 6 6 5 5 5 6 6 7
3 3 3 3 3 3 3 3 3 2 1 2 2 1 1 2 2 1 1 2 2 2 2 3 3 3 2 2 2 4 5 5 6 6 6 5 5 5 5 5 6 6 6
2 2 3 3 3 3 3 4 4 4 2 2 2 2 2 2 2 2 1 1 1 1 2 2 3 3 3 2 2 3 4 4 5 6 6 5 4 4 4 5 6 5 6
2 3 3 4 3 3 3 4 4 3 3 2 2 1 2 2 2 1 2 1 1 2 2 2 2 2 3 2 3 3 4 3 4 5 5 5 4 5 5 6 6 6 6
1 2 3 3 4 3 4 4 3 4 3 3 3 2 2 1 2 2 2 2 1 2 2 2 2 2 3 2 2 3 3 3 4 4 5 5 5 5 5 5 6 6 6
1 1 2 3 3 3 4 4 4 5 4 4 3 3 3 2 3 3 3 2 2 2 2 2 2 2 2 2 3 3 3 3 3 3 4 5 5 4 4 4 5 5 5
1 2 2 2 2 3 3 3 3 4 4 4 4 3 3 3 2 2 2 2 2 2 2 1 2 2 2 2 2 3 3 2 3 3 3 3 3 3 3 4 4 4 5
2 2 2 2 2 2 3 3 3 3 3 4 4 4 3 3 3 3 3 2 1 1 1 2 1 2 2 2 2 3 2 2 3 3 3 3 3 3 3 3 3 3 4
2 2 2 2 2 2 2 3 2 3 3 3 4 4 4 3 3 3 3 3 3 2 2 2 1 1 2 2 2 1 2 2 3 3 4 3 3 3 3 3 3 3 2
2 1 2 2 1 1 2 2 2 2 2 2 3 3 3 2 2 3 3 3 3 3 2 2 2 1 1 1 1 1 2 3 3 4 3 3 3 3 2 2 2 2 2
2 2 2 2 2 2 2 2 2 2 2 2 2 2 3 2 2 2 2 2 2 2 3 2 1 1 1 1 1 1 1 2 2 3 4 4 3 3 2 2 2 2 2
1 2 2 2 2 2 2 2 2 2 2 2 2 2 2 1 2 1 2 2 2 2 3 3 1 1 1 1 1 1 1 1 1 2 3 3 3 3 2 2 2 2 2
1 1 1 2 2 1 2 2 2 2 2 2 2 2 2 1 1 1 2 2 2 1 2 2 1 1 0 0 0 1 1 1 2 1 2 2 3 3 3 3 2 2 2
2 2 2 2 2 2 2 1 2 2 1 1 1 2 2 2 2 2 1 2 1 1 1 1 1 1 1 0 1 1 2 1 2 2 2 2 2 2 2 3 3 3 3
2 2 2 1 1 2 2 1 2 2 1 1 1 1 1 1 1 1 1 2 2 2 2 2 2 1 1 1 2 2 2 2 2 2 2 2 1 2 2 3 4 4 4
2 2 2 2 2 2 2 2 2 1 1 1 1 1 1 1 1 2 2 3 3 3 3 2 2 3 4 3 2 2 2 1 3 2 2 3 2 3 3 3 3 4 5
2 2 2 2 3 3 2 2 2 2 2 2 1 1 2 1 1 2 2 2 3 4 4 4 4 5 4 4 4 4 3 4 4 2 2 3 2 3 3 3 5 6 6
3 3 3 3 3 3 3 3 3 2 2 2 2 2 2 2 2 1 2 2 3 4 4 4 4 5 5 4 5 4 4 3 3 2 3 3 2 3 3 3 5 6 6
3 3 3 3 3 3 3 3 3 2 1 2 2 2 2 2 2 1 2 2 3 4 4 4 4 5 5 5 4 2 2 2 3 3 3 3 2 2 2 3 3 5 6
3 2 2 2 3 3 3 3 3 2 2 2 2 2 2 2 3 1 2 2 3 4 3 3 3 3 3 4 5 5 4 4 2 3 3 3 2 2 2 2 2 2 4
Wind_Direction
109 111 107 108 107 107 113 114 103 96 92 85 91 119 135 151 143 164 223 199 188 189 195 197 198 198 197 196 198 197 199 204 203 198 203 215 218 212 207 208 204 199 200
124 117 106 101 104 115 117 117 112 104 95 84 58 72 150 159 163 197 225 233 202 196 205 214 213 208 204 202 203 203 205 209 209 207 210 214 218 216 207 210 206 209 210
135 134 124 119 121 115 114 106 94 89 97 93 61 24 39 139 174 203 197 244 247 217 215 222 225 224 218 214 214 213 212 214 214 217 215 213 215 215 213 218 218 216 214
145 142 140 147 137 120 119 122 119 109 94 92 68 10 8 347 251 211 181 211 234 241 231 226 231 235 232 227 225 222 219 220 220 222 220 217 220 222 219 221 220 216 211
157 151 151 149 134 130 135 150 128 134 135 121 102 4 346 324 296 253 227 224 221 222 232 250 249 240 234 236 237 234 232 229 227 233 233 224 223 225 223 220 216 213 212
161 151 151 145 139 141 150 151 142 131 140 145 104 17 345 312 292 259 245 238 225 223 218 228 252 269 252 246 244 243 244 242 238 237 236 234 232 226 225 221 216 211 214
164 158 158 151 154 163 174 160 143 147 149 136 97 22 349 324 278 267 253 242 246 237 220 214 212 237 261 258 248 248 251 251 250 247 241 237 236 233 226 226 223 217 219
177 176 169 170 169 166 169 172 157 152 163 156 139 111 355 338 328 289 249 231 246 242 231 224 216 224 234 245 252 250 254 257 260 256 250 240 238 240 234 230 225 223 222
182 179 172 175 180 179 186 192 181 170 173 180 168 156 162 235 306 309 279 254 249 243 245 241 231 234 229 228 243 250 252 258 261 263 260 248 236 239 238 232 232 230 229
180 183 181 183 191 190 193 202 192 183 172 187 189 195 191 174 188 294 308 296 270 254 252 250 246 245 238 231 229 229 240 254 268 274 276 260 245 239 241 237 235 236 236
204 192 186 188 195 197 199 202 193 191 189 189 187 180 183 198 191 204 266 290 296 273 259 241 236 242 245 238 235 233 233 248 269 280 285 277 259 250 247 242 242 243 239
236 206 192 193 201 203 204 207 203 200 200 197 201 194 186 188 199 199 228 250 270 281 272 248 240 241 240 236 238 230 227 234 258 277 288 289 275 263 257 251 253 250 243
245 236 210 198 202 209 204 201 202 210 202 203 210 211 209 213 195 190 204 238 262 281 285 262 242 239 239 227 239 240 240 240 250 262 274 284 287 277 258 249 251 254 251
235 229 209 204 205 202 202 195 203 217 209 215 221 213 215 219 203 198 191 193 238 272 265 261 269 236 236 229 235 241 250 248 252 248 250 261 267 269 253 244 243 247 252
227 216 206 206 213 204 202 194 208 216 206 218 224 219 221 226 214 213 205 195 195 237 262 247 247 255 229 226 233 230 243 259 257 249 245 250 252 248 233 232 233 231 240
223 202 200 206 214 206 201 193 215 219 206 224 227 226 233 232 221 213 210 203 199 206 240 245 231 249 251 259 226 231 240 249 256 252 251 257 261 254 233 229 231 230 235
210 205 199 194 195 195 189 193 222 216 212 237 249 238 251 239 224 212 195 192 197 193 223 259 249 255 241 251 271 258 244 248 270 259 256 256 252 253 246 234 234 238 239
199 194 189 186 192 195 188 195 231 228 217 236 258 251 261 244 223 209 190 193 199 199 200 226 241 251 249 252 262 266 285 268 273 273 260 260 260 254 251 248 240 228 235
180 168 168 189 200 203 193 206 214 217 215 232 238 230 246 222 234 223 198 193 200 198 191 196 227 215 244 305 306 297 286 290 283 281 270 269 264 255 246 238 236 230 230
182 184 192 211 212 208 209 217 212 207 211 234 239 230 234 223 231 222 207 207 196 187 179 185 201 211 224 216 204 250 277 272 274 281 280 267 257 247 239 239 235 229 222
192 181 182 215 227 210 224 214 214 212 211 234 263 258 244 236 229 215 209 202 190 191 195 203 210 213 219 210 221 214 241 274 271 259 273 263 251 248 241 239 235 232 225
185 173 194 208 218 233 233 193 189 209 211 212 247 282 274 264 269 228 217 196 184 191 206 212 220 231 237 228 213 210 218 247 267 236 237 264 235 247 248 233 234 232 227
179 188 208 215 229 246 228 195 186 186 197 211 229 256 279 301 264 264 252 234 227 223 208 208 224 237 235 220 206 220 225 231 245 226 200 255 240 250 250 243 230 228 227
189 200 214 222 235 243 217 196 183 183 192 217 232 236 250 279 284 259 254 257 258 252 237 227 237 245 243 224 211 218 224 236 256 240 202 240 243 249 259 250 235 229 226
198 206 211 216 226 251 229 204 179 185 208 244 254 253 248 259 279 230 219 258 281 283 264 250 251 259 253 235 205 182 191 215 256 246 203 225 244 253 259 256 240 226 222
205 209 222 224 223 240 243 217 193 201 225 253 273 269 253 260 268 227 216 237 265 277 288 294 284 282 262 237 210 206 209 221 245 247 199 210 225 220 254 250 250 235 226